Simultaneous Nadir Overpasses (SNOs) Predictions

Prediction of SNOs between GOES-16 and NPP Satellite Orbit:

Table of predicted SNOs for the next 14.0 days since TLE Epoch: 11/6/2021
Index Date Time (GOES-16) GOES-16 Lat,Lon NPP Lat,Lon Distance(km) Time Diff (sec)
1 11/07/2021 06:24:55 0.02, -75.20 0.02, -75.15 5.43 80
2 11/09/2021 18:30:50 -0.01, -75.19 -0.20, -75.93 84.20 80
3 11/10/2021 18:09:27 -0.00, -75.19 0.87, -71.41 431.81 80
4 11/12/2021 06:33:56 0.01, -75.20 0.35, -76.68 168.88 80
5 11/13/2021 06:12:33 0.00, -75.20 -0.66, -72.15 347.67 80
6 11/14/2021 18:37:11 -0.01, -75.22 -0.52, -77.46 255.42 80
7 11/15/2021 18:15:48 -0.01, -75.23 0.49, -72.93 261.83 80
8 11/17/2021 06:40:18 0.02, -75.25 0.67, -78.21 336.94 80
9 11/18/2021 06:18:55 0.02, -75.26 -0.34, -73.68 180.52 80
10 11/19/2021 18:43:33 -0.03, -75.28 -0.83, -78.99 421.64 80
